Cheraw, SC

4:06 AM EDT on May 24, 2017 (GMT -0400)
Cheraw

Weather History for KCQW - January, 2014

Change the Weather History Date:

Wednesday, January 1, 2014

  Actual Average (KFLO) Record (KFLO)
Temperature  
Mean Temperature 40 °F -  
Max Temperature 48 °F 57 °F 83 °F (1952)
Min Temperature 32 °F 39 °F 19 °F (1998)
Degree Days  
Heating Degree Days 25    
Moisture  
Dew Point 33 °F    
Average Humidity 81    
Maximum Humidity 100    
Minimum Humidity 43    
Precipitation  
Precipitation 0.00 in - - ()
Sea Level Pressure  
Sea Level Pressure 30.32 in    
Wind  
Wind Speed - (North)    
Max Wind Speed -    
Max Gust Speed -    
Visibility 10 miles    
Events      
Averages and records for this station are not official NWS values.
T = Trace of Precipitation, MM = Missing Value Source: NWS Daily Summary

Daily Weather History Graph

Daily Weather History Graph

Search for Another Location

Airport or City:

Trip Planner

Search our weather history database for the weather conditions in past years. The results will help you decide how hot, cold, wet, or windy it might be!

Date:

Astronomy

Jan. 01, 2014 Rise Set
Actual Time 7:27 AM EST 5:19 PM EST
Civil Twilight 6:59 AM EST 5:47 PM EST
Nautical Twilight 6:27 AM EST 6:19 PM EST
Astronomical Twilight 5:57 AM EST 6:50 PM EST
Moon 7:18 AM EST (1/1) 5:59 PM EST (1/1)
Length of Visible Light 10h 48m
Length of Day
9h 52m
New Moon, 0% of the Moon is Illuminated
Jan 1
New Moon
Jan 7
First Quarter
Jan 15
Full
Jan 24
Last Quarter
Jan 30
New

Hourly Weather History & Observations

Time (EST) Temp. Dew Point Humidity Pressure Visibility Wind Dir Wind Speed Gust Speed Precip Events Conditions
12:15 AM 32.0 °F 32.0 °F 100% 30.36 in 10.0 mi North - - N/A   Clear
12:35 AM 32.0 °F 32.0 °F 100% 30.36 in 7.0 mi North - - N/A   Clear
12:55 AM 32.0 °F 32.0 °F 100% 30.37 in 10.0 mi North - - N/A   Clear
1:15 AM 32.0 °F 32.0 °F 100% 30.36 in 10.0 mi North - - N/A   Clear
1:35 AM 32.0 °F 32.0 °F 100% 30.37 in 10.0 mi North - - N/A   Clear
1:55 AM 32.0 °F 32.0 °F 100% 30.37 in 10.0 mi North - - N/A   Clear
2:15 AM 32.0 °F 32.0 °F 100% 30.37 in 10.0 mi North - - N/A   Clear
2:35 AM 32.0 °F 32.0 °F 100% 30.38 in 10.0 mi North - - N/A   Clear
2:55 AM 32.0 °F 32.0 °F 100% 30.37 in 10.0 mi North - - N/A   Clear
3:15 AM 32.0 °F 32.0 °F 100% 30.38 in 10.0 mi North - - N/A   Clear
3:35 AM 32.0 °F 32.0 °F 100% 30.37 in 10.0 mi North - - N/A   Clear
3:55 AM 32.0 °F 32.0 °F 100% 30.37 in 10.0 mi North - - N/A   Clear
4:15 AM 32.0 °F 32.0 °F 100% 30.36 in 10.0 mi North - - N/A   Clear
4:35 AM 32.0 °F 32.0 °F 100% 30.36 in 10.0 mi North - - N/A   Clear
4:55 AM 32.0 °F 32.0 °F 100% 30.36 in 10.0 mi North - - N/A   Clear
5:15 AM 32.0 °F 32.0 °F 100% 30.37 in 10.0 mi North - - N/A   Clear
5:35 AM 32.0 °F 32.0 °F 100% 30.37 in 10.0 mi North - - N/A   Clear
5:55 AM 32.0 °F 32.0 °F 100% 30.37 in 10.0 mi North - - N/A   Clear
6:15 AM 32.0 °F 32.0 °F 100% 30.37 in 10.0 mi North - - N/A   Clear
6:35 AM 32.0 °F 32.0 °F 100% 30.37 in 10.0 mi North - - N/A   Clear
6:55 AM 32.0 °F 32.0 °F 100% 30.37 in 10.0 mi North - - N/A   Clear
7:15 AM 32.0 °F 32.0 °F 100% 30.37 in 10.0 mi North - - N/A   Clear
7:35 AM 32.0 °F 32.0 °F 100% 30.38 in 9.0 mi North - - N/A   Clear
7:55 AM 32.0 °F 32.0 °F 100% 30.40 in 8.0 mi North - - N/A   Clear
8:15 AM 32.0 °F 32.0 °F 100% 30.41 in 10.0 mi North - - N/A   Clear
8:35 AM 32.0 °F 32.0 °F 100% 30.41 in 10.0 mi North - - N/A   Clear
8:55 AM 35.6 °F 32.0 °F 87% 30.42 in 10.0 mi North - - N/A   Clear
9:15 AM 35.6 °F 32.0 °F 87% 30.42 in 10.0 mi North - - N/A   Clear
9:35 AM 35.6 °F 33.8 °F 93% 30.40 in 10.0 mi North - - N/A   Clear
9:55 AM 37.4 °F 33.8 °F 87% 30.41 in 10.0 mi North - - N/A   Clear
10:15 AM 39.2 °F 33.8 °F 81% 30.41 in 10.0 mi North - - N/A   Clear
10:35 AM 41.0 °F 32.0 °F 70% 30.41 in 10.0 mi North - - N/A   Clear
10:55 AM 44.6 °F 28.4 °F 53% 30.40 in 10.0 mi North - - N/A   Clear
11:15 AM 44.6 °F 28.4 °F 53% 30.39 in 10.0 mi North - - N/A   Clear
11:35 AM 44.6 °F 28.4 °F 53% 30.37 in 10.0 mi North - - N/A   Clear
11:55 AM 46.4 °F 26.6 °F 46% 30.37 in 10.0 mi North - - N/A   Clear
12:15 PM 46.4 °F 26.6 °F 46% 30.36 in 10.0 mi North - - N/A   Clear
12:35 PM 46.4 °F 28.4 °F 50% 30.34 in 10.0 mi North - - N/A   Clear
12:55 PM 46.4 °F 28.4 °F 50% 30.33 in 10.0 mi North - - N/A   Clear
1:15 PM 46.4 °F 28.4 °F 50% 30.33 in 10.0 mi North - - N/A   Scattered Clouds
1:35 PM 46.4 °F 28.4 °F 50% 30.32 in 10.0 mi North - - N/A   Partly Cloudy
1:55 PM 48.2 °F 26.6 °F 43% 30.31 in 10.0 mi North - - N/A   Clear
2:15 PM 48.2 °F 28.4 °F 46% 30.30 in 10.0 mi North - - N/A   Clear
2:35 PM 48.2 °F 26.6 °F 43% 30.29 in 10.0 mi North - - N/A   Clear
2:55 PM 48.2 °F 28.4 °F 46% 30.29 in 10.0 mi North - - N/A   Clear
3:15 PM 48.2 °F 28.4 °F 46% 30.28 in 10.0 mi North - - N/A   Clear
3:35 PM 48.2 °F 26.6 °F 43% 30.28 in 10.0 mi North - - N/A   Clear
3:55 PM 48.2 °F 28.4 °F 46% 30.28 in 10.0 mi North - - N/A   Clear
4:15 PM 48.2 °F 28.4 °F 46% 30.27 in 10.0 mi North - - N/A   Partly Cloudy
4:35 PM 48.2 °F 28.4 °F 46% 30.27 in 10.0 mi North - - N/A   Mostly Cloudy
4:55 PM 46.4 °F 32.0 °F 57% 30.26 in 10.0 mi North - - N/A   Scattered Clouds
5:15 PM 44.6 °F 35.6 °F 71% 30.27 in 10.0 mi North - - N/A   Clear
5:35 PM 44.6 °F 35.6 °F 71% 30.25 in 10.0 mi North - - N/A   Partly Cloudy
5:55 PM 44.6 °F 35.6 °F 71% 30.25 in 10.0 mi North - - N/A   Scattered Clouds
6:15 PM 42.8 °F 35.6 °F 76% 30.24 in 10.0 mi North - - N/A   Mostly Cloudy
6:35 PM 42.8 °F 37.4 °F 81% 30.25 in 5.0 mi North - - N/A   Haze
6:55 PM 42.8 °F 37.4 °F 81% 30.25 in 10.0 mi North - - N/A   Overcast
7:15 PM 42.8 °F 37.4 °F 81% 30.25 in 10.0 mi North - - N/A   Overcast
7:35 PM 42.8 °F 37.4 °F 81% 30.25 in 10.0 mi North - - N/A   Overcast
7:55 PM 42.8 °F 39.2 °F 87% 30.25 in 10.0 mi North - - N/A   Overcast
8:15 PM 42.8 °F 39.2 °F 87% 30.23 in 10.0 mi North - - N/A   Overcast
8:35 PM 42.8 °F 41.0 °F 93% 30.23 in 10.0 mi North - - N/A   Overcast
8:55 PM 44.6 °F 41.0 °F 87% 30.21 in 10.0 mi North - - N/A   Overcast
9:15 PM 42.8 °F 39.2 °F 87% 30.21 in 10.0 mi North - - N/A   Overcast
9:35 PM 42.8 °F 39.2 °F 87% 30.20 in 10.0 mi North - - N/A   Mostly Cloudy
9:55 PM 41.0 °F 39.2 °F 93% 30.20 in 10.0 mi North - - N/A   Scattered Clouds
10:15 PM 41.0 °F 39.2 °F 93% 30.20 in 10.0 mi North - - N/A   Overcast
10:35 PM 41.0 °F 39.2 °F 93% 30.19 in 10.0 mi North - - N/A   Mostly Cloudy
10:55 PM 41.0 °F 39.2 °F 93% 30.19 in 10.0 mi North - - N/A   Mostly Cloudy
11:15 PM 41.0 °F 39.2 °F 93% 30.18 in 10.0 mi North - - N/A   Mostly Cloudy
11:35 PM 41.0 °F 39.2 °F 93% 30.17 in 10.0 mi North - - N/A   Mostly Cloudy
11:55 PM 41.0 °F 39.2 °F 93% 30.16 in 10.0 mi North - - N/A   Scattered Clouds